Temperature
12 12 11 11 11 11 11 11 11 12 12 12 12 12 12 12 11 11 11 10 10 10 10 10 10 10 11 11 11 11 11 11 11 11 11 11 11 12 12 12 12 12 12
12 11 11 11 11 11 11 11 12 12 12 12 12 11 11 10 10 10 9 9 9 10 10 10 10 10 10 10 10 10 11 11 11 11 11 11 11 11 11 12 12 12 12
11 11 11 11 11 11 12 12 12 12 12 11 11 10 10 10 9 9 9 9 9 9 9 10 10 10 10 10 10 10 10 11 11 10 10 10 10 10 10 11 11 11 11
11 11 11 11 11 12 11 11 11 11 11 10 10 10 10 10 9 9 8 9 9 9 9 9 9 9 10 10 10 10 10 10 10 10 9 9 9 9 9 9 9 10 10
11 11 11 11 11 11 11 10 10 9 9 9 9 10 10 10 9 8 8 8 9 9 9 9 8 9 9 9 9 9 9 9 9 8 7 7 7 7 7 7 7 7 8
11 11 11 11 11 10 10 10 9 8 8 8 9 9 9 9 8 8 8 8 8 8 8 8 8 8 8 8 8 8 7 7 7 6 5 5 5 4 4 4 5 5 5
11 11 11 11 10 10 10 9 8 8 7 7 8 8 9 8 8 8 7 7 8 8 8 7 7 7 7 7 7 6 6 6 5 4 4 4 3 3 3 3 3 4 4
11 11 10 10 10 9 9 8 7 7 6 6 5 6 6 7 7 7 8 8 7 7 6 6 6 6 6 6 6 6 5 5 3 2 2 2 2 2 2 2 2 2 3
11 10 10 10 9 9 8 8 7 6 5 5 4 3 3 3 3 4 5 5 5 5 5 5 5 5 5 5 5 5 4 4 2 1 1 1 1 1 1 1 1 1 2
10 10 9 9 9 8 7 7 6 5 4 4 4 3 3 2 1 1 3 4 4 4 4 4 4 4 4 4 3 3 2 1 -0 -0 -0 -0 -0 0 0 0 0 1 1
10 9 9 8 8 7 7 6 5 4 4 3 3 3 2 2 1 -1 -1 1 3 3 3 3 3 3 2 2 1 -0 -1 -2 -2 -2 -1 -1 -1 -1 -1 -1 -0 -0 -0
9 9 8 8 7 6 6 5 4 4 3 3 2 2 1 1 0 -2 -3 -2 -2 0 1 2 1 1 0 -1 -2 -2 -3 -3 -3 -3 -3 -3 -2 -2 -2 -2 -2 -1 -1
9 8 7 7 6 6 5 4 4 3 3 3 2 2 1 0 -1 -2 -2 -3 -3 -2 -2 -2 -2 -2 -2 -3 -4 -4 -4 -4 -4 -4 -4 -4 -3 -3 -3 -3 -3 -3 -2
8 7 7 6 5 5 4 4 3 3 3 2 2 1 1 0 -1 -2 -3 -4 -5 -4 -4 -4 -4 -4 -5 -6 -6 -6 -6 -6 -6 -5 -5 -5 -5 -4 -5 -4 -4 -4 -4
7 7 6 5 5 4 4 3 3 2 2 2 1 1 0 -0 -1 -2 -3 -4 -6 -7 -6 -6 -6 -7 -7 -7 -7 -7 -7 -7 -7 -6 -6 -6 -6 -6 -6 -5 -5 -5 -5
7 6 5 5 4 3 3 2 2 2 2 1 1 1 0 -1 -2 -3 -5 -5 -6 -7 -7 -7 -7 -7 -7 -7 -7 -7 -7 -7 -7 -7 -7 -7 -7 -6 -6 -6 -6 -6 -6
6 5 5 4 3 3 2 2 1 1 1 1 1 0 -1 -2 -4 -5 -6 -7 -7 -7 -8 -8 -7 -7 -7 -7 -7 -7 -8 -8 -8 -8 -8 -7 -7 -7 -7 -7 -7 -6 -6
5 5 4 3 2 2 1 1 1 1 1 0 -0 -1 -2 -4 -5 -6 -7 -7 -8 -8 -8 -8 -8 -8 -8 -7 -7 -8 -8 -8 -8 -8 -8 -8 -8 -8 -8 -7 -7 -7 -7
5 4 3 2 2 1 1 1 1 0 -0 -1 -2 -3 -4 -5 -6 -7 -7 -8 -8 -8 -8 -8 -8 -8 -8 -8 -8 -8 -8 -9 -9 -9 -9 -9 -9 -9 -8 -8 -8 -8 -8
4 3 2 1 1 1 1 0 -0 -1 -1 -2 -4 -5 -5 -6 -7 -8 -8 -8 -8 -8 -8 -8 -8 -8 -8 -8 -9 -9 -9 -9 -10 -10 -10 -10 -10 -9 -9 -9 -9 -9 -9
2 2 1 1 0 0 -0 -1 -2 -3 -3 -4 -5 -6 -7 -7 -8 -8 -8 -8 -8 -8 -8 -8 -8 -9 -9 -9 -9 -10 -10 -10 -10 -10 -10 -10 -10 -10 -10 -10 -10 -10 -9
1 1 0 0 -0 -0 -1 -1 -3 -5 -5 -6 -7 -7 -8 -8 -8 -8 -8 -8 -8 -8 -8 -9 -9 -9 -10 -10 -10 -10 -10 -10 -10 -10 -10 -11 -11 -11 -11 -10 -10 -10 -9
0 -0 -0 -0 -1 -1 -2 -2 -4 -6 -6 -7 -7 -8 -8 -8 -8 -8 -8 -8 -8 -9 -9 -10 -10 -10 -10 -10 -10 -10 -10 -11 -11 -11 -11 -11 -11 -11 -11 -10 -10 -10 -9
-0 -1 -1 -1 -1 -2 -2 -3 -4 -6 -7 -8 -8 -8 -8 -9 -9 -9 -8 -8 -9 -9 -10 -10 -10 -10 -10 -10 -11 -11 -11 -11 -11 -11 -11 -11 -11 -11 -11 -10 -10 -10 -10
-1 -1 -1 -2 -2 -3 -3 -4 -6 -7 -8 -8 -8 -8 -9 -9 -9 -9 -9 -9 -10 -10 -10 -10 -10 -10 -10 -10 -10 -11 -11 -11 -11 -11 -11 -11 -11 -11 -11 -10 -9 -10 -9
-1 -2 -2 -3 -3 -4 -4 -6 -7 -8 -8 -8 -9 -9 -9 -9 -9 -9 -9 -10 -10 -10 -10 -10 -10 -9 -9 -9 -9 -10 -11 -12 -12 -12 -10 -11 -11 -11 -11 -10 -9 -9 -9
Wind_Speed
4 3 5 8 9 9 8 6 5 6 6 7 8 7 7 10 10 10 11 14 16 16 17 17 16 16 15 16 16 16 15 14 13 11 10 9 9 9 8 9 11 13 15
6 5 6 6 7 8 8 7 5 4 4 4 5 6 5 8 8 9 11 13 16 18 19 20 19 18 18 17 16 16 16 15 13 11 8 8 8 8 9 10 9 9 10
9 8 6 5 5 7 8 6 5 5 6 6 7 5 4 5 6 8 11 13 14 17 20 21 21 19 18 18 17 17 16 16 15 12 10 9 9 9 9 10 11 12 11
12 9 6 5 7 9 7 5 5 5 6 7 7 5 4 3 4 6 9 12 13 13 16 20 21 19 18 17 18 17 16 15 15 13 11 10 11 11 11 12 12 13 14
14 11 6 5 9 7 5 5 5 5 5 8 8 6 4 2 2 4 6 8 10 11 12 16 19 19 18 17 17 17 17 17 16 13 12 12 12 13 13 14 14 14 15
15 12 7 8 8 6 6 5 6 5 3 6 7 7 5 3 1 4 4 4 7 9 11 13 15 16 18 16 17 19 19 19 17 14 13 14 13 13 14 15 16 16 17
14 11 6 6 6 7 6 6 5 6 5 5 5 6 5 4 2 2 2 1 4 9 12 15 17 16 13 14 16 20 21 20 17 15 16 15 15 16 17 18 19 20 20
12 11 7 6 6 6 8 8 6 4 4 5 4 4 5 6 5 4 3 3 6 7 9 17 17 16 16 13 15 21 20 19 16 17 18 18 18 19 21 22 23 23 24
13 12 9 6 6 7 6 6 6 5 4 4 5 5 4 4 5 5 5 4 5 5 7 8 12 16 18 15 15 17 20 18 17 18 20 21 22 23 25 26 27 26 26
11 11 10 9 6 6 7 5 5 3 3 3 3 3 1 3 3 6 5 4 4 7 7 9 10 14 17 16 17 20 20 18 19 21 23 25 26 28 29 30 29 28 27
8 10 10 8 6 6 6 6 4 4 2 1 1 2 2 2 2 3 7 6 7 5 6 8 8 9 15 16 14 16 18 20 23 25 26 29 31 32 32 31 30 30 29
5 6 9 8 6 5 5 4 3 3 2 1 1 1 2 2 2 4 6 11 11 7 9 9 7 6 11 13 15 20 22 24 26 28 30 32 32 32 32 32 32 32 31
4 5 5 5 4 5 4 3 3 2 1 2 2 2 2 3 3 3 6 11 11 7 5 4 5 6 11 12 15 23 24 27 30 32 33 34 34 33 32 32 33 34 34
5 5 5 5 5 4 4 3 2 2 2 3 3 4 3 4 4 4 4 8 13 6 4 6 5 6 6 12 19 26 22 29 32 34 35 35 34 32 32 34 35 36 37
6 6 6 5 4 3 3 3 2 3 4 3 4 5 4 5 5 5 5 5 6 10 12 6 4 4 8 13 18 18 18 27 33 35 35 33 32 34 36 37 38 38 38
6 7 6 4 3 3 3 3 3 4 4 4 4 6 6 5 5 5 6 6 7 11 15 7 9 9 9 13 23 21 20 30 32 32 31 32 36 38 39 39 38 37 36
7 6 5 4 3 3 3 3 4 5 5 6 6 7 8 8 6 6 6 7 8 9 15 17 12 10 10 11 13 14 18 16 18 26 31 36 38 37 37 36 35 34 34
6 6 5 4 4 4 4 4 5 6 7 8 8 8 9 8 8 7 7 8 9 9 12 19 16 13 13 13 12 11 14 13 11 27 33 35 35 34 34 33 32 33 34
6 6 5 4 4 4 5 5 5 6 7 7 8 8 9 9 9 8 9 10 10 11 10 14 17 16 14 12 12 13 12 11 16 22 27 29 31 33 33 33 34 36 35
6 5 4 4 4 5 5 6 6 6 5 6 7 8 8 9 10 10 10 9 9 10 11 13 15 14 13 11 9 13 15 10 12 14 20 24 29 32 32 33 33 34 34
6 4 4 4 4 5 5 7 5 4 4 6 7 8 9 13 15 13 13 11 11 12 13 14 14 14 13 13 14 13 18 17 13 11 14 15 14 13 15 24 28 31 32
5 4 4 5 6 5 11 14 11 4 4 6 8 8 9 11 15 21 25 24 22 16 13 11 13 17 17 15 14 16 17 19 19 9 11 16 13 14 12 10 24 31 32
4 4 4 5 6 8 13 15 16 8 5 7 9 9 10 12 17 13 19 23 16 22 24 18 17 17 18 17 17 19 18 19 20 15 15 19 14 15 14 17 29 32 33
3 3 4 5 6 8 14 16 18 8 6 8 10 10 11 12 14 18 15 12 10 12 18 14 12 15 15 13 15 18 19 19 18 13 12 17 16 16 17 14 27 32 33
3 3 4 6 7 9 15 18 18 6 7 9 10 11 12 11 21 26 16 12 12 13 19 22 24 24 28 27 22 15 14 15 18 16 10 11 16 17 16 15 19 28 29
3 5 6 6 7 8 14 18 18 6 7 8 8 8 14 18 24 26 15 11 14 16 16 15 17 20 17 19 23 14 13 15 16 13 7 7 14 14 11 9 9 11 16
Wind_Direction
124 106 81 72 65 66 65 56 48 44 33 21 18 19 12 360 3 9 13 26 33 31 35 32 27 22 21 26 28 30 30 27 27 29 31 27 19 3 339 311 292 286 283
123 102 84 72 63 63 65 59 50 45 30 10 3 7 10 6 14 20 25 31 33 33 33 30 25 20 19 14 12 15 15 10 4 3 9 15 8 359 357 356 342 320 304
109 99 89 77 65 65 65 58 43 44 28 9 350 349 7 8 26 28 33 38 33 35 33 30 24 18 14 8 6 2 2 2 359 357 0 357 351 349 349 349 349 345 338
107 101 94 83 72 62 51 45 29 26 17 358 335 332 358 357 30 38 48 46 37 39 32 27 21 14 8 3 360 354 353 352 350 348 348 343 339 337 334 329 328 327 325
106 102 93 81 71 59 42 36 34 28 8 350 329 327 354 347 37 40 49 49 39 40 32 22 15 6 358 352 352 348 344 337 328 323 323 321 318 317 315 313 311 310 311
105 100 89 77 71 62 43 30 26 21 3 342 328 325 331 338 8 30 37 41 30 29 22 13 6 353 347 342 344 340 334 328 319 317 315 311 311 312 312 310 307 304 302
104 98 93 79 72 73 60 39 30 17 1 353 349 331 335 355 331 335 12 25 18 17 12 3 351 337 330 328 331 331 326 319 311 311 311 309 311 311 309 307 305 303 300
102 97 93 90 85 81 61 46 40 28 6 12 11 354 349 342 341 336 344 12 17 12 4 346 332 322 316 310 314 322 318 311 305 306 305 305 306 307 307 305 303 300 298
95 98 99 97 83 79 71 58 47 50 14 359 31 39 11 319 306 313 326 342 0 4 335 320 317 312 308 304 303 310 306 300 298 300 300 301 301 302 302 301 298 296 293
95 98 96 90 82 80 75 62 59 52 53 14 350 14 254 249 288 311 299 297 327 317 299 316 307 299 296 296 295 303 299 291 294 297 299 300 300 299 297 295 293 292 292
87 92 91 87 81 79 76 66 59 59 77 75 349 317 309 295 255 277 292 303 306 276 288 289 283 287 293 294 292 294 290 294 298 299 299 299 298 296 294 293 292 290 290
82 83 88 85 83 79 74 67 61 55 52 39 301 256 254 283 297 281 288 307 307 293 285 277 277 285 296 297 302 302 299 301 301 300 299 297 295 294 294 294 293 291 290
103 94 85 80 76 77 77 66 49 17 343 332 300 271 253 245 245 262 291 307 304 295 271 256 273 287 298 308 313 307 302 302 302 300 298 297 296 295 295 294 294 293 291
123 109 92 85 79 72 63 46 23 330 319 308 288 277 261 253 245 256 274 305 313 299 246 269 274 263 296 309 302 302 302 300 301 300 298 296 295 296 296 295 293 291 289
114 100 92 85 69 52 35 15 346 326 317 293 280 272 252 248 243 246 254 266 285 302 306 271 259 284 295 291 294 296 290 293 297 295 294 295 296 296 294 292 290 289 286
98 98 88 78 55 31 12 359 332 316 313 297 276 271 262 251 245 246 250 259 261 277 290 287 295 287 283 294 296 295 290 294 296 294 293 294 293 292 291 290 288 287 285
100 95 88 71 41 18 360 350 324 312 315 306 298 288 279 269 257 252 254 261 264 269 285 296 296 294 285 281 288 282 280 279 280 285 289 289 289 289 289 288 287 286 286
98 92 81 61 29 6 350 337 319 320 312 304 301 300 292 290 270 266 267 265 267 268 280 295 301 302 295 291 289 283 292 288 276 284 288 290 291 291 289 287 287 288 288
91 78 68 46 16 349 329 316 311 308 304 302 303 301 296 294 289 281 274 275 275 283 282 291 297 298 297 296 296 295 288 280 283 288 291 292 291 290 288 288 290 289 288
87 71 54 33 1 330 316 309 304 298 306 313 307 300 298 295 286 282 285 280 288 292 290 291 292 296 300 300 300 302 302 289 288 291 290 288 288 289 288 289 289 289 288
81 66 44 16 354 331 311 303 290 287 304 308 301 296 297 304 309 309 311 309 306 302 302 303 307 312 308 308 307 306 304 303 293 288 288 285 284 278 279 282 285 285 284
65 48 25 0 344 328 316 319 321 294 284 297 297 293 294 299 307 317 315 312 310 313 317 309 306 305 306 306 306 304 305 304 302 297 290 295 289 286 281 274 282 284 284
51 29 3 339 317 311 323 324 321 322 289 291 292 295 306 311 315 301 302 308 312 312 312 309 305 305 305 306 304 304 302 299 298 302 301 297 294 291 288 286 288 287 286
35 3 327 322 321 323 331 326 322 325 293 285 289 291 294 296 298 305 310 314 301 302 306 306 297 298 303 302 300 302 301 299 295 292 288 293 297 294 293 287 288 285 284
10 328 324 332 327 319 327 325 324 302 290 289 291 294 300 296 306 316 321 312 309 312 315 311 311 310 309 309 309 308 307 306 304 303 295 286 295 299 295 288 283 284 285
345 339 332 323 315 309 321 326 325 299 296 295 291 288 309 317 317 323 322 317 318 314 314 318 316 311 306 304 309 308 305 303 303 304 295 285 299 307 301 276 267 275 280
Height
1512 1513 1513 1513 1513 1512 1511 1510 1509 1507 1505 1504 1503 1500 1498 1496 1494 1493 1492 1491 1491 1491 1490 1488 1488 1487 1487 1485 1484 1482 1481 1480 1480 1479 1478 1477 1477 1477 1477 1477 1477 1477 1477
1511 1511 1511 1512 1512 1510 1509 1508 1506 1504 1502 1501 1499 1497 1494 1491 1490 1489 1489 1488 1488 1488 1487 1486 1485 1484 1483 1482 1481 1479 1478 1478 1477 1476 1474 1473 1473 1473 1472 1472 1471 1471 1471
1510 1510 1510 1510 1509 1508 1507 1506 1504 1501 1499 1497 1496 1493 1490 1488 1487 1487 1487 1487 1486 1485 1484 1483 1482 1481 1480 1479 1477 1476 1475 1474 1472 1471 1469 1468 1468 1467 1466 1466 1466 1465 1464
1508 1508 1509 1509 1508 1506 1505 1503 1501 1498 1496 1494 1493 1491 1488 1486 1485 1485 1485 1485 1484 1484 1483 1481 1479 1478 1476 1475 1473 1471 1470 1468 1467 1466 1464 1462 1461 1460 1459 1459 1458 1458 1457
1507 1507 1507 1507 1506 1504 1502 1500 1497 1494 1493 1492 1490 1488 1486 1484 1483 1483 1483 1483 1482 1481 1480 1478 1476 1474 1472 1470 1468 1466 1464 1462 1461 1459 1458 1456 1455 1453 1452 1451 1451 1450 1449
1505 1505 1506 1505 1504 1502 1499 1497 1495 1492 1491 1489 1488 1486 1483 1482 1481 1480 1480 1480 1479 1478 1476 1474 1472 1469 1467 1464 1462 1460 1457 1456 1455 1453 1451 1450 1448 1446 1445 1443 1442 1441 1441
1503 1504 1504 1503 1501 1499 1496 1494 1493 1492 1489 1487 1484 1482 1481 1480 1478 1477 1477 1477 1476 1474 1472 1470 1467 1464 1461 1458 1456 1453 1450 1449 1448 1446 1445 1443 1441 1439 1437 1435 1434 1432 1431
1502 1502 1501 1500 1498 1496 1494 1493 1492 1490 1488 1485 1483 1480 1478 1477 1476 1476 1476 1474 1470 1468 1466 1464 1461 1458 1455 1452 1449 1446 1443 1441 1440 1438 1437 1436 1433 1431 1428 1426 1425 1423 1422
1500 1500 1499 1498 1496 1494 1493 1492 1490 1489 1488 1486 1484 1482 1479 1475 1471 1467 1468 1466 1463 1461 1458 1455 1453 1451 1448 1444 1441 1437 1435 1432 1431 1430 1429 1427 1425 1422 1420 1417 1415 1414 1412
1498 1497 1497 1496 1494 1492 1491 1490 1489 1488 1486 1484 1483 1481 1480 1476 1471 1463 1460 1459 1456 1453 1450 1448 1445 1443 1440 1436 1432 1429 1426 1424 1423 1422 1420 1418 1415 1413 1410 1408 1405 1403 1402
1496 1496 1495 1494 1492 1491 1490 1489 1488 1486 1484 1482 1480 1478 1476 1473 1469 1463 1453 1449 1446 1444 1442 1440 1437 1434 1431 1428 1424 1421 1419 1417 1416 1414 1411 1408 1405 1402 1399 1396 1394 1392 1390
1494 1494 1493 1491 1490 1489 1488 1487 1486 1484 1482 1480 1477 1474 1471 1468 1465 1460 1452 1443 1437 1434 1433 1431 1429 1427 1423 1420 1417 1414 1412 1409 1406 1403 1400 1397 1393 1390 1387 1384 1381 1379 1378
1492 1491 1490 1489 1488 1487 1485 1484 1483 1481 1479 1477 1474 1472 1468 1465 1462 1458 1451 1441 1431 1424 1422 1420 1420 1418 1415 1412 1409 1406 1403 1400 1396 1392 1389 1385 1382 1378 1374 1371 1368 1366 1364
1489 1488 1488 1487 1485 1484 1482 1481 1479 1478 1476 1473 1470 1468 1464 1461 1458 1454 1449 1440 1427 1418 1415 1412 1410 1409 1407 1405 1401 1398 1394 1391 1386 1382 1378 1374 1370 1366 1362 1359 1356 1353 1351
1486 1486 1485 1484 1483 1481 1479 1477 1476 1474 1472 1469 1466 1463 1459 1456 1452 1449 1444 1440 1433 1418 1406 1402 1403 1401 1400 1397 1394 1391 1387 1383 1379 1374 1369 1364 1360 1355 1350 1347 1343 1340 1337
1484 1483 1482 1481 1480 1478 1476 1474 1472 1470 1467 1464 1461 1458 1454 1450 1445 1442 1438 1434 1429 1421 1408 1398 1396 1394 1392 1390 1387 1383 1378 1374 1370 1365 1361 1356 1350 1345 1339 1334 1330 1326 1323
1481 1480 1479 1478 1477 1474 1472 1469 1468 1465 1463 1460 1456 1452 1447 1443 1439 1435 1431 1427 1423 1417 1405 1394 1391 1387 1384 1380 1376 1372 1368 1363 1359 1355 1351 1345 1339 1333 1327 1321 1317 1314 1311
1477 1477 1476 1475 1473 1470 1468 1466 1463 1461 1458 1454 1450 1445 1440 1436 1431 1428 1424 1419 1415 1410 1403 1391 1384 1380 1376 1371 1366 1362 1358 1354 1349 1344 1339 1333 1327 1321 1315 1311 1306 1302 1299
1474 1473 1472 1471 1469 1467 1465 1462 1459 1456 1452 1448 1443 1438 1433 1429 1424 1420 1416 1412 1407 1403 1398 1390 1380 1374 1367 1363 1358 1352 1348 1343 1337 1332 1326 1321 1315 1310 1305 1300 1296 1291 1287
1470 1469 1468 1467 1465 1463 1461 1458 1454 1450 1446 1442 1437 1432 1427 1422 1417 1413 1409 1405 1401 1396 1390 1383 1374 1367 1362 1356 1351 1344 1335 1330 1325 1321 1315 1309 1304 1299 1294 1289 1284 1279 1275
1466 1466 1465 1464 1462 1460 1457 1453 1449 1444 1440 1435 1431 1426 1421 1417 1413 1409 1406 1400 1395 1389 1382 1376 1368 1361 1356 1350 1344 1336 1328 1319 1313 1311 1302 1295 1291 1285 1280 1275 1271 1266 1262
1464 1463 1462 1460 1458 1455 1452 1448 1444 1438 1434 1429 1424 1420 1416 1412 1407 1404 1399 1394 1390 1384 1377 1370 1362 1356 1348 1343 1336 1330 1322 1313 1301 1299 1294 1285 1282 1274 1268 1264 1258 1255 1251
1462 1460 1459 1456 1454 1450 1446 1442 1438 1433 1428 1424 1419 1415 1410 1407 1402 1396 1390 1386 1382 1378 1374 1367 1357 1349 1342 1337 1330 1322 1315 1308 1299 1292 1287 1275 1270 1263 1257 1251 1247 1243 1239
1458 1457 1455 1452 1449 1445 1441 1436 1432 1427 1423 1419 1415 1411 1406 1400 1395 1390 1385 1379 1373 1368 1363 1357 1351 1344 1338 1331 1325 1318 1309 1300 1291 1285 1281 1270 1260 1253 1245 1239 1234 1230 1226
1455 1453 1451 1447 1443 1439 1435 1431 1426 1421 1418 1414 1410 1406 1401 1396 1390 1386 1379 1372 1364 1358 1353 1349 1344 1338 1331 1324 1318 1311 1303 1294 1283 1275 1272 1264 1253 1244 1234 1227 1222 1218 1214
1451 1449 1446 1443 1438 1434 1430 1425 1421 1417 1412 1408 1404 1400 1396 1391 1386 1380 1374 1366 1357 1351 1345 1339 1334 1329 1323 1317 1312 1306 1298 1290 1279 1268 1262 1257 1247 1240 1225 1215 1212 1207 1202